Flag for Dominican Republic Weather past 2 weeks in Puerto Plata, Dominican Republic

Now
79 °F

Passing clouds.


Feels Like: 82 °F
Forecast: 74 / 86 °F
Wind: 7 mph from East

Location: Puerto Plata International


UV Index: 7 (High)

Visibility: N/A


Pressure: 29.95 "Hg

Humidity: 89%

Dew point: 75 °F

Location of Puerto PlataLocation

Historic Weather in Puerto Plata

°F

Puerto Plata temperature yesterday

Maximum temperature yesterday: 88 °F (at 11:00 AM)
Minimum temperature yesterday: 75 °F (at 8:00 AM)
Average temperature yesterday: 83 °F

Past Weeks' High & Low Weather Summary

 TemperatureHumidityPressure
High91 °F (Apr 8, 2:00 PM)100% (Apr 5, 5:00 AM)30.09 "Hg (Apr 5, 5:00 AM)
Low72 °F (Apr 4, 5:00 AM)55% (Apr 8, 1:00 PM)29.86 "Hg (Apr 15, 4:00 PM)
Average82 °F75%29.99 "Hg
* Reported Apr 1 8:00 PM — Apr 16 8:00 PM, Puerto Plata, Weather by CustomWeather, © 2014

Note: Actual official high and low records may vary slightly from our data, if they occured in-between our weather recording intervals... More about our weather records

Advertising

Historic Weather Conditions — Data for Previous 24 hours

 ConditionsComfort  
Time TempWeatherWind HumidityBarometerVisibility
8:00 PM
Apr 16
79 °FPassing clouds.7 mph89%29.95 "HgN/A
7:00 PM81 °FPassing clouds.14 mph79%29.95 "HgN/A
6:00 PM84 °FPassing clouds.12 mph74%29.92 "HgN/A
5:00 PM86 °FPassing clouds.17 mph66%29.92 "HgN/A
4:00 PM86 °FPassing clouds.12 mph66%29.92 "HgN/A
3:00 PM88 °FPassing clouds.17 mph66%29.92 "HgN/A
2:00 PM88 °FPassing clouds.21 mph66%29.95 "HgN/A
1:00 PM88 °FPassing clouds.14 mph62%29.95 "HgN/A
12:00 PM86 °FPassing clouds.16 mph66%30.01 "HgN/A
11:00 AM86 °FPassing clouds.17 mph66%29.98 "HgN/A
10:00 AM86 °FPassing clouds.17 mph62%30.01 "HgN/A
9:00 AM82 °FPassing clouds.12 mph74%29.98 "HgN/A
8:00 AM73 °FPassing clouds.No wind89%29.98 "HgN/A
5:00 AM72 °FPassing clouds.No wind100%29.92 "HgN/A
2:00 AM72 °FPassing clouds.No wind94%29.95 "HgN/A
11:00 PM
Apr 15
77 °FPassing clouds.3 mph89%29.95 "HgN/A
8:00 PM79 °FPassing clouds.12 mph84%29.92 "HgN/A
Weather by CustomWeather, © 2014

See weather overview